Location: Brodeslavy
(49.9527°N, 13.5567°E)
Time: 04:17:55
(UTC+00:00)

SL-16 R/B - Pass Details

Date: 17 June 2025
Orbit: 841 x 847 km, 71.0° (Epoch: 12 July)

Event Time Altitude Azimuth Distance (km) Brightness Sun altitude
Rises 20:46:39 0° 327° (NNW) 3,409 7.7 -10.3°
Reaches altitude 10° 20:49:10 10° 323° (NW) 2,471 6.2 -10.5°
Maximum altitude 20:54:36 50° 249° (WSW) 1,066 2.8 -11.0°
Enters shadow 20:59:42 12° 177° (S) 2,337 4.0 -11.4°
